Location: Balsareny
(41.8670°N, 1.8830°E)
Time: 01:13:54
(UTC+02:00)

X-37B - Pass Details

Date: 22 June 2021
Orbit: 383 x 392 km, 45.0° (Epoch: 01 July)

Event Time Altitude Azimuth Distance (km) Brightness Sun altitude
Rises 23:26:13 0° 237° (WSW) 2,246 4.5 -16.2°
Reaches altitude 10° 23:28:18 10° 232° (SW) 1,395 3.4 -16.5°
Enters shadow 23:31:13 52° 167° (SSE) 480 0.6 -16.8°
